RYS73IQ LTBJ-EPWR

Flight info

Callsign RYS73IQ
Flight time 2h 18m
Altitude 36000
Route VEXOL UG802 NEMIS UG18 GIKAS UN133 PEREN UL863 EVIVI DCT OKANA DCT OBAGI DCT ESIRI DCT PARAK DCT ERGUZ DCT BALAP DCT REGLI L617 EPOPA
Aircraft B739/M-SDE2E3FGHIRWXY/LB1

Departure

Time 2026-05-05 16:30
Airport Adnan Menderes International Airport (LTBJ)

Arrival

Time 2026-05-05 18:48
Airport Copernicus Wrocław Airport (EPWR)
Time Latitude Longitude Altitude Speed Heading
2026-05-05 15:32 38.29353 27.15033 410 ft 0 kts 257°
2026-05-05 16:11 38.29356 27.15049 404 ft 4 kts 256°
2026-05-05 16:11 38.29402 27.15112 404 ft 3 kts 167°
2026-05-05 16:12 38.29409 27.15110 406 ft 0 kts 166°
2026-05-05 16:16 38.29407 27.15111 406 ft 1 kts 166°
2026-05-05 16:16 38.29368 27.15123 408 ft 0 kts 166°
2026-05-05 16:21 38.29367 27.15123 408 ft 0 kts 166°
2026-05-05 16:22 38.29281 27.15149 410 ft 8 kts 167°
2026-05-05 16:22 38.29145 27.15189 410 ft 13 kts 167°
2026-05-05 16:23 38.28978 27.15304 410 ft 15 kts 153°
2026-05-05 16:23 38.28882 27.15335 413 ft 14 kts 168°
2026-05-05 16:23 38.28701 27.15389 415 ft 13 kts 164°
2026-05-05 16:24 38.28616 27.15417 413 ft 13 kts 167°
2026-05-05 16:24 38.28532 27.15442 413 ft 12 kts 166°
2026-05-05 16:24 38.28361 27.15494 413 ft 14 kts 166°
2026-05-05 16:25 38.28261 27.15524 418 ft 16 kts 167°
2026-05-05 16:25 38.28053 27.15587 415 ft 15 kts 166°
2026-05-05 16:25 38.27955 27.15616 414 ft 14 kts 166°
2026-05-05 16:26 38.27773 27.15671 412 ft 13 kts 167°
2026-05-05 16:26 38.27715 27.15788 418 ft 12 kts
2026-05-05 16:27 38.27761 27.15805 417 ft 0 kts 34°
2026-05-05 16:27 38.27762 27.15805 417 ft 0 kts 34°
2026-05-05 16:28 38.27770 27.15816 413 ft 3 kts 46°
2026-05-05 16:28 38.27785 27.15859 412 ft 8 kts 73°
2026-05-05 16:28 38.27800 27.15938 416 ft 10 kts 79°
2026-05-05 16:28 38.27815 27.16033 416 ft 11 kts 76°
2026-05-05 16:29 38.27853 27.16107 416 ft 11 kts 12°
2026-05-05 16:29 38.27925 27.16094 414 ft 10 kts 347°
2026-05-05 16:29 38.28150 27.16027 413 ft 66 kts 347°
2026-05-05 16:29 38.28804 27.15827 411 ft 125 kts 346°
2026-05-05 16:30 38.29804 27.15493 427 ft 169 kts 343°
2026-05-05 16:30 38.30998 27.15158 813 ft 180 kts 346°
2026-05-05 16:30 38.32216 27.14764 1415 ft 177 kts 340°
2026-05-05 16:30 38.33371 27.14364 2220 ft 170 kts 347°
2026-05-05 16:31 38.34591 27.14027 2585 ft 192 kts 347°
2026-05-05 16:31 38.35975 27.13638 2805 ft 216 kts 347°
2026-05-05 16:31 38.37436 27.13039 3297 ft 226 kts 328°
2026-05-05 16:31 38.38524 27.11575 3918 ft 237 kts 303°
2026-05-05 16:32 38.39050 27.09480 4331 ft 259 kts 277°
2026-05-05 16:32 38.39042 27.07151 5096 ft 267 kts 270°
2026-05-05 16:32 38.38921 27.04774 5918 ft 270 kts 269°
2026-05-05 16:32 38.38794 27.02379 6731 ft 273 kts 269°
2026-05-05 16:33 38.38665 26.99950 7486 ft 277 kts 270°
2026-05-05 16:33 38.38549 26.97486 8242 ft 281 kts 271°
2026-05-05 16:33 38.38436 26.94988 9067 ft 283 kts 271°
2026-05-05 16:33 38.38323 26.92472 9840 ft 286 kts 271°
2026-05-05 16:34 38.38210 26.89915 10415 ft 295 kts 271°
2026-05-05 16:34 38.38093 26.87197 10584 ft 318 kts 271°
2026-05-05 16:34 38.37967 26.84291 10761 ft 339 kts 271°
2026-05-05 16:34 38.37829 26.81200 10991 ft 357 kts 271°
2026-05-05 16:35 38.37685 26.78051 11494 ft 364 kts 270°
2026-05-05 16:35 38.37533 26.74822 12187 ft 366 kts 270°
2026-05-05 16:35 38.37378 26.71574 12901 ft 368 kts 270°
2026-05-05 16:35 38.37224 26.68297 13563 ft 372 kts 271°
2026-05-05 16:36 38.37069 26.64991 14159 ft 376 kts 271°
2026-05-05 16:36 38.36912 26.61654 14767 ft 378 kts 271°
2026-05-05 16:36 38.36752 26.58297 15380 ft 381 kts 271°
2026-05-05 16:36 38.36592 26.54920 15968 ft 384 kts 271°
2026-05-05 16:37 38.36430 26.51516 16542 ft 386 kts 271°
2026-05-05 16:37 38.36265 26.48089 17133 ft 389 kts 271°
2026-05-05 16:37 38.36098 26.44633 17673 ft 393 kts 271°
2026-05-05 16:37 38.35928 26.41142 18208 ft 396 kts 271°
2026-05-05 16:38 38.35755 26.37627 18703 ft 399 kts 271°
2026-05-05 16:38 38.35581 26.34087 19162 ft 402 kts 271°
2026-05-05 16:38 38.35403 26.30513 19643 ft 405 kts 271°
2026-05-05 16:38 38.35224 26.26922 20120 ft 408 kts 271°
2026-05-05 16:39 38.35043 26.23305 20581 ft 411 kts 271°
2026-05-05 16:39 38.34869 26.19667 21032 ft 413 kts 272°
2026-05-05 16:39 38.34827 26.16006 21481 ft 414 kts 276°
2026-05-05 16:39 38.35211 26.12395 21890 ft 410 kts 289°
2026-05-05 16:40 38.36276 26.09063 22334 ft 405 kts 303°
2026-05-05 16:40 38.37950 26.06200 22761 ft 402 kts 317°
2026-05-05 16:40 38.40123 26.03974 23151 ft 402 kts 330°
2026-05-05 16:40 38.42673 26.02516 23532 ft 404 kts 344°
2026-05-05 16:41 38.45447 26.01926 23884 ft 406 kts 358°
2026-05-05 16:41 38.48279 26.02040 24245 ft 409 kts
2026-05-05 16:41 38.51122 26.02354 24591 ft 411 kts
2026-05-05 16:41 38.53975 26.02719 24933 ft 414 kts
2026-05-05 16:42 38.56845 26.03097 25297 ft 416 kts
2026-05-05 16:42 38.59727 26.03480 25658 ft 418 kts
2026-05-05 16:42 38.62590 26.03858 26006 ft 420 kts
2026-05-05 16:42 38.65540 26.04226 26343 ft 422 kts
2026-05-05 16:43 38.68427 26.03909 26608 ft 425 kts 346°
2026-05-05 16:43 38.71195 26.02548 26955 ft 430 kts 334°
2026-05-05 16:43 38.73726 26.00484 27275 ft 434 kts 326°
2026-05-05 16:43 38.76176 25.98192 27564 ft 437 kts 326°
2026-05-05 16:44 38.78638 25.95899 27842 ft 440 kts 327°
2026-05-05 16:44 38.81127 25.93593 28115 ft 442 kts 327°
2026-05-05 16:44 38.83634 25.91284 28412 ft 445 kts 327°
2026-05-05 16:44 38.86149 25.88975 28811 ft 444 kts 327°
2026-05-05 16:45 38.88653 25.86680 29314 ft 442 kts 327°
2026-05-05 16:45 38.91154 25.84389 29744 ft 441 kts 327°
2026-05-05 16:45 38.93655 25.82099 30095 ft 442 kts 327°
2026-05-05 16:45 38.96157 25.79807 30440 ft 441 kts 327°
2026-05-05 16:46 38.98653 25.77518 30814 ft 440 kts 327°
2026-05-05 16:46 39.01135 25.75239 31177 ft 439 kts 327°
2026-05-05 16:46 39.03617 25.72959 31483 ft 439 kts 327°
2026-05-05 16:46 39.06099 25.70677 31808 ft 438 kts 327°
2026-05-05 16:47 39.08572 25.68401 32164 ft 436 kts 327°
2026-05-05 16:47 39.11040 25.66127 32479 ft 436 kts 327°
2026-05-05 16:47 39.13506 25.63853 32756 ft 436 kts 327°
2026-05-05 16:47 39.15974 25.61575 33069 ft 435 kts 326°
2026-05-05 16:48 39.18429 25.59307 33403 ft 434 kts 326°
2026-05-05 16:48 39.20880 25.57041 33692 ft 434 kts 326°
2026-05-05 16:48 39.23333 25.54770 33929 ft 434 kts 326°
2026-05-05 16:48 39.25788 25.52496 34038 ft 435 kts 326°
2026-05-05 16:49 39.30704 25.47938 34040 ft 435 kts 326°
2026-05-05 16:49 39.35608 25.43381 34049 ft 434 kts 326°
2026-05-05 16:50 39.40513 25.38816 34045 ft 434 kts 326°
2026-05-05 16:50 39.45419 25.34242 34044 ft 435 kts 326°
2026-05-05 16:51 39.49492 25.30437 34042 ft 435 kts 326°
2026-05-05 16:51 39.54406 25.25842 34045 ft 436 kts 326°
2026-05-05 16:52 39.59319 25.21237 34048 ft 437 kts 326°
2026-05-05 16:52 39.64248 25.16610 34045 ft 438 kts 326°
2026-05-05 16:53 39.69189 25.11964 34044 ft 439 kts 326°
2026-05-05 16:53 39.74137 25.07302 34044 ft 440 kts 326°
2026-05-05 16:54 39.79095 25.02622 34040 ft 441 kts 326°
2026-05-05 16:54 39.84064 24.97923 34043 ft 442 kts 326°
2026-05-05 16:55 39.89044 24.93205 34042 ft 443 kts 326°
2026-05-05 16:55 39.94027 24.88476 34040 ft 444 kts 326°
2026-05-05 16:56 39.99023 24.83725 34035 ft 444 kts 326°
2026-05-05 16:56 40.04019 24.78966 34034 ft 445 kts 325°
2026-05-05 16:57 40.08984 24.74227 34034 ft 445 kts 325°
2026-05-05 16:57 40.13982 24.69449 34030 ft 446 kts 325°
2026-05-05 16:58 40.18988 24.64653 34029 ft 446 kts 325°
2026-05-05 16:58 40.23992 24.59851 34029 ft 446 kts 325°
2026-05-05 16:59 40.29003 24.55032 34024 ft 447 kts 325°
2026-05-05 16:59 40.34010 24.50209 34025 ft 447 kts 325°
2026-05-05 17:00 40.39020 24.45374 34026 ft 447 kts 325°
2026-05-05 17:00 40.44029 24.40530 34025 ft 447 kts 325°
2026-05-05 17:01 40.49038 24.35677 34025 ft 448 kts 325°
2026-05-05 17:01 40.54054 24.30809 34015 ft 448 kts 325°
2026-05-05 17:02 40.59068 24.25932 34016 ft 448 kts 324°
2026-05-05 17:02 40.64076 24.21052 34020 ft 448 kts 324°
2026-05-05 17:03 40.69045 24.16202 34022 ft 448 kts 324°
2026-05-05 17:03 40.74047 24.11309 34023 ft 447 kts 324°
2026-05-05 17:04 40.79040 24.06416 34013 ft 447 kts 324°
2026-05-05 17:04 40.84024 24.01523 34009 ft 446 kts 324°
2026-05-05 17:05 40.88998 23.96629 34021 ft 445 kts 324°
2026-05-05 17:05 40.93965 23.91734 34007 ft 445 kts 324°
2026-05-05 17:06 40.98913 23.86847 34006 ft 443 kts 323°
2026-05-05 17:06 41.03850 23.81962 34013 ft 442 kts 323°
2026-05-05 17:07 41.08773 23.77082 34009 ft 442 kts 323°
2026-05-05 17:07 41.13688 23.72201 34009 ft 441 kts 323°
2026-05-05 17:08 41.18599 23.67319 34029 ft 443 kts 324°
2026-05-05 17:08 41.21213 23.65162 34203 ft 443 kts 332°
2026-05-05 17:08 41.23937 23.63263 34536 ft 440 kts 333°
2026-05-05 17:09 41.26653 23.61437 34894 ft 436 kts 333°
2026-05-05 17:09 41.29366 23.59624 35099 ft 437 kts 333°
2026-05-05 17:09 41.32048 23.57820 35270 ft 438 kts 333°
2026-05-05 17:09 41.34802 23.55948 35440 ft 439 kts 333°
2026-05-05 17:10 41.37511 23.54089 35671 ft 438 kts 333°
2026-05-05 17:10 41.40205 23.52227 35935 ft 435 kts 333°
2026-05-05 17:10 41.45591 23.48486 36025 ft 436 kts 332°
2026-05-05 17:11 41.50959 23.44744 36016 ft 434 kts 333°
2026-05-05 17:11 41.56262 23.41041 36005 ft 432 kts 332°
2026-05-05 17:12 41.61579 23.37324 36013 ft 431 kts 332°
2026-05-05 17:12 41.66884 23.33608 35998 ft 430 kts 332°
2026-05-05 17:13 41.72256 23.29837 36028 ft 430 kts 332°
2026-05-05 17:13 41.77551 23.26114 36018 ft 431 kts 332°
2026-05-05 17:14 41.83004 23.22273 36017 ft 432 kts 332°
2026-05-05 17:14 41.88325 23.18517 36016 ft 433 kts 332°
2026-05-05 17:15 41.93661 23.14744 36012 ft 434 kts 332°
2026-05-05 17:15 41.99006 23.10957 36019 ft 435 kts 332°
2026-05-05 17:16 42.04361 23.07156 36011 ft 435 kts 332°
2026-05-05 17:16 42.09715 23.03348 36006 ft 435 kts 332°
2026-05-05 17:17 42.15066 22.99535 36007 ft 435 kts 332°
2026-05-05 17:17 42.20412 22.95717 36007 ft 434 kts 332°
2026-05-05 17:18 42.25744 22.91904 36008 ft 433 kts 332°
2026-05-05 17:18 42.31066 22.88089 36001 ft 433 kts 332°
2026-05-05 17:19 42.36372 22.84279 36006 ft 431 kts 332°
2026-05-05 17:19 42.41632 22.80494 35997 ft 431 kts 332°
2026-05-05 17:20 42.46948 22.76662 36010 ft 430 kts 332°
2026-05-05 17:20 42.52190 22.72875 36007 ft 429 kts 332°
2026-05-05 17:21 42.57457 22.69064 36011 ft 429 kts 332°
2026-05-05 17:22 42.65337 22.63347 36011 ft 428 kts 332°
2026-05-05 17:22 42.70590 22.59527 36017 ft 428 kts 332°
2026-05-05 17:23 42.75781 22.55745 35989 ft 418 kts 331°
2026-05-05 17:23 42.80851 22.52044 35994 ft 411 kts 331°
2026-05-05 17:24 42.85932 22.48498 36003 ft 410 kts 336°
2026-05-05 17:24 42.91266 22.45568 36016 ft 417 kts 337°
2026-05-05 17:25 42.96701 22.42628 35999 ft 422 kts 337°
2026-05-05 17:25 43.02159 22.39644 36000 ft 423 kts 337°
2026-05-05 17:26 43.07627 22.36629 35992 ft 424 kts 336°
2026-05-05 17:26 43.13097 22.33602 35989 ft 423 kts 336°
2026-05-05 17:27 43.18517 22.30597 35987 ft 423 kts 336°
2026-05-05 17:27 43.23967 22.27570 35980 ft 422 kts 336°
2026-05-05 17:28 43.29399 22.24547 35979 ft 421 kts 336°
2026-05-05 17:28 43.34828 22.21520 35968 ft 421 kts 336°
2026-05-05 17:29 43.40242 22.18495 35974 ft 420 kts 336°
2026-05-05 17:29 43.44742 22.15977 35972 ft 420 kts 336°
2026-05-05 17:30 43.50147 22.12946 35975 ft 419 kts 336°
2026-05-05 17:30 43.55550 22.09900 35976 ft 419 kts 335°
2026-05-05 17:31 43.60636 22.06017 35972 ft 419 kts 328°
2026-05-05 17:31 43.65632 22.01857 35977 ft 419 kts 328°
2026-05-05 17:32 43.70641 21.97700 35973 ft 421 kts 328°
2026-05-05 17:32 43.75675 21.93546 35971 ft 422 kts 328°
2026-05-05 17:33 43.80720 21.89387 35978 ft 422 kts 328°
2026-05-05 17:33 43.85768 21.85218 35973 ft 423 kts 328°
2026-05-05 17:34 43.90826 21.81033 35973 ft 423 kts 328°
2026-05-05 17:34 43.95884 21.76838 35976 ft 423 kts 328°
2026-05-05 17:35 44.00939 21.72638 35971 ft 424 kts 328°
2026-05-05 17:35 44.05999 21.68425 35972 ft 424 kts 328°
2026-05-05 17:36 44.11059 21.64203 35971 ft 425 kts 328°
2026-05-05 17:36 44.16127 21.59966 35970 ft 425 kts 328°
2026-05-05 17:37 44.21167 21.55744 35959 ft 425 kts 328°
2026-05-05 17:37 44.26232 21.51492 35953 ft 425 kts 328°
2026-05-05 17:38 44.31300 21.47230 35951 ft 425 kts 328°
2026-05-05 17:38 44.36477 21.43218 35957 ft 426 kts 331°
2026-05-05 17:39 44.41765 21.39475 35946 ft 426 kts 332°
2026-05-05 17:39 44.47061 21.35729 35952 ft 426 kts 332°
2026-05-05 17:40 44.52339 21.31946 35943 ft 426 kts 331°
2026-05-05 17:40 44.57613 21.28135 35950 ft 426 kts 331°
2026-05-05 17:41 44.62886 21.24311 35943 ft 427 kts 331°
2026-05-05 17:41 44.68161 21.20477 35939 ft 427 kts 331°
2026-05-05 17:42 44.73436 21.16636 35941 ft 427 kts 331°
2026-05-05 17:42 44.78718 21.12782 35939 ft 428 kts 331°
2026-05-05 17:43 44.84006 21.08917 35934 ft 428 kts 331°
2026-05-05 17:43 44.89292 21.05044 35938 ft 428 kts 331°
2026-05-05 17:44 44.94583 21.01160 35938 ft 429 kts 331°
2026-05-05 17:44 44.99877 20.97265 35938 ft 429 kts 331°
2026-05-05 17:45 45.05174 20.93359 35937 ft 430 kts 331°
2026-05-05 17:45 45.10479 20.89440 35939 ft 430 kts 331°
2026-05-05 17:46 45.15749 20.85539 35933 ft 430 kts 331°
2026-05-05 17:46 45.21052 20.81604 35934 ft 431 kts 331°
2026-05-05 17:47 45.26364 20.77655 35934 ft 431 kts 330°
2026-05-05 17:47 45.31679 20.73695 35932 ft 431 kts 330°
2026-05-05 17:48 45.36989 20.69730 35933 ft 431 kts 330°
2026-05-05 17:48 45.42307 20.65751 35932 ft 432 kts 330°
2026-05-05 17:49 45.47622 20.61766 35932 ft 432 kts 330°
2026-05-05 17:49 45.52939 20.57770 35929 ft 432 kts 330°
2026-05-05 17:50 45.58254 20.53767 35928 ft 432 kts 330°
2026-05-05 17:50 45.63571 20.49754 35930 ft 432 kts 330°
2026-05-05 17:51 45.68889 20.45732 35931 ft 432 kts 330°
2026-05-05 17:51 45.74206 20.41701 35925 ft 433 kts 330°
2026-05-05 17:52 45.79525 20.37661 35927 ft 433 kts 330°
2026-05-05 17:52 45.84849 20.33607 35922 ft 433 kts 330°
2026-05-05 17:53 45.90173 20.29545 35924 ft 434 kts 330°
2026-05-05 17:53 45.95501 20.25471 35925 ft 434 kts 330°
2026-05-05 17:54 46.00835 20.21383 35924 ft 434 kts 330°
2026-05-05 17:54 46.06169 20.17286 35919 ft 435 kts 330°
2026-05-05 17:55 46.11506 20.13178 35918 ft 435 kts 330°
2026-05-05 17:55 46.16934 20.09316 35907 ft 437 kts 338°
2026-05-05 17:56 46.22853 20.07200 35919 ft 439 kts 346°
2026-05-05 17:56 46.28835 20.05407 35922 ft 439 kts 346°
2026-05-05 17:57 46.34822 20.03570 35914 ft 440 kts 346°
2026-05-05 17:57 46.40806 20.01686 35918 ft 440 kts 345°
2026-05-05 17:58 46.52688 19.97899 35913 ft 440 kts 345°
2026-05-05 17:59 46.58672 19.95986 35913 ft 441 kts 345°
2026-05-05 17:59 46.64658 19.94069 35918 ft 441 kts 345°
2026-05-05 18:00 46.70646 19.92147 35910 ft 441 kts 345°
2026-05-05 18:00 46.76634 19.90220 35910 ft 441 kts 345°
2026-05-05 18:01 46.82632 19.88286 35912 ft 441 kts 345°
2026-05-05 18:01 46.88622 19.86350 35917 ft 441 kts 345°
2026-05-05 18:02 46.94615 19.84408 35913 ft 441 kts 345°
2026-05-05 18:02 47.00561 19.82478 35913 ft 442 kts 346°
2026-05-05 18:03 47.06544 19.80368 35905 ft 440 kts 340°
2026-05-05 18:03 47.12257 19.77339 35907 ft 440 kts 337°
2026-05-05 18:04 47.17965 19.74125 35911 ft 440 kts 337°
2026-05-05 18:04 47.23693 19.70948 35907 ft 440 kts 338°
2026-05-05 18:05 47.29439 19.67807 35904 ft 440 kts 338°
2026-05-05 18:05 47.35186 19.64674 35911 ft 441 kts 338°
2026-05-05 18:06 47.40936 19.61535 35911 ft 441 kts 338°
2026-05-05 18:06 47.46686 19.58385 35912 ft 441 kts 338°
2026-05-05 18:07 47.52368 19.55265 35913 ft 441 kts 338°
2026-05-05 18:07 47.58119 19.52100 35916 ft 441 kts 338°
2026-05-05 18:08 47.63881 19.48921 35912 ft 442 kts 338°
2026-05-05 18:08 47.69635 19.45738 35915 ft 442 kts 338°
2026-05-05 18:09 47.75395 19.42546 35920 ft 442 kts 338°
2026-05-05 18:09 47.81123 19.39363 35915 ft 442 kts 338°
2026-05-05 18:10 47.86888 19.36152 35908 ft 442 kts 338°
2026-05-05 18:10 47.92647 19.32937 35909 ft 442 kts 338°
2026-05-05 18:11 47.98418 19.29707 35909 ft 443 kts 338°
2026-05-05 18:11 48.04183 19.26473 35905 ft 443 kts 338°
2026-05-05 18:12 48.09928 19.23171 35899 ft 442 kts 336°
2026-05-05 18:12 48.15620 19.19662 35911 ft 442 kts 335°
2026-05-05 18:13 48.21308 19.16117 35916 ft 442 kts 335°
2026-05-05 18:13 48.26997 19.12585 35905 ft 443 kts 335°
2026-05-05 18:14 48.32698 19.09055 35902 ft 443 kts 335°
2026-05-05 18:14 48.38399 19.05522 35906 ft 443 kts 335°
2026-05-05 18:15 48.44100 19.01980 35900 ft 443 kts 335°
2026-05-05 18:15 48.49800 18.98429 35905 ft 443 kts 335°
2026-05-05 18:16 48.55505 18.94866 35901 ft 444 kts 335°
2026-05-05 18:16 48.61203 18.91299 35898 ft 444 kts 335°
2026-05-05 18:17 48.66872 18.87742 35894 ft 444 kts 335°
2026-05-05 18:17 48.72614 18.84130 35893 ft 444 kts 335°
2026-05-05 18:18 48.78276 18.80558 35884 ft 444 kts 335°
2026-05-05 18:18 48.83978 18.76954 35880 ft 444 kts 335°
2026-05-05 18:19 48.89678 18.73342 35877 ft 444 kts 335°
2026-05-05 18:19 48.95372 18.69725 35872 ft 444 kts 335°
2026-05-05 18:20 49.01067 18.66097 35869 ft 444 kts 335°
2026-05-05 18:20 49.05841 18.63050 35859 ft 444 kts 335°
2026-05-05 18:21 49.11501 18.59428 35863 ft 444 kts 335°
2026-05-05 18:21 49.17196 18.55775 35858 ft 444 kts 335°
2026-05-05 18:22 49.22893 18.52111 35851 ft 444 kts 335°
2026-05-05 18:22 49.28591 18.48438 35857 ft 444 kts 334°
2026-05-05 18:23 49.34278 18.44763 35860 ft 444 kts 334°
2026-05-05 18:23 49.40010 18.41046 35112 ft 455 kts 335°
2026-05-05 18:23 49.42921 18.39156 34435 ft 454 kts 335°
2026-05-05 18:24 49.45828 18.37268 33890 ft 450 kts 335°
2026-05-05 18:24 49.48695 18.35404 33272 ft 446 kts 335°
2026-05-05 18:24 49.51531 18.33557 32741 ft 440 kts 335°
2026-05-05 18:24 49.54337 18.31728 32204 ft 435 kts 335°
2026-05-05 18:25 49.57110 18.29917 31692 ft 430 kts 335°
2026-05-05 18:25 49.58928 18.28728 31348 ft 428 kts 335°
2026-05-05 18:25 49.62568 18.26344 30674 ft 422 kts 335°
2026-05-05 18:25 49.65262 18.24578 30178 ft 418 kts 335°
2026-05-05 18:26 49.67927 18.22828 29660 ft 415 kts 335°
2026-05-05 18:26 49.70571 18.21090 29130 ft 411 kts 335°
2026-05-05 18:26 49.73186 18.19370 28650 ft 406 kts 335°
2026-05-05 18:26 49.75768 18.17668 28159 ft 401 kts 335°
2026-05-05 18:27 49.78322 18.15984 27669 ft 398 kts 335°
2026-05-05 18:27 49.80856 18.14310 27198 ft 394 kts 335°
2026-05-05 18:27 49.83365 18.12652 26720 ft 391 kts 335°
2026-05-05 18:27 49.85855 18.11004 26250 ft 388 kts 335°
2026-05-05 18:28 49.90785 18.07734 25335 ft 383 kts 335°
2026-05-05 18:28 49.93227 18.06111 24882 ft 381 kts 335°
2026-05-05 18:28 49.95656 18.04496 24441 ft 379 kts 334°
2026-05-05 18:29 49.98072 18.02888 23990 ft 377 kts 335°
2026-05-05 18:29 50.00475 18.01287 23538 ft 375 kts 335°
2026-05-05 18:29 50.02871 17.99689 23032 ft 375 kts 335°
2026-05-05 18:29 50.05287 17.98172 22550 ft 373 kts 337°
2026-05-05 18:30 50.07672 17.96628 21977 ft 372 kts 333°
2026-05-05 18:30 50.09989 17.94821 21392 ft 373 kts 330°
2026-05-05 18:30 50.12272 17.92923 20907 ft 371 kts 329°
2026-05-05 18:30 50.14531 17.91019 20474 ft 368 kts 329°
2026-05-05 18:31 50.16780 17.89133 20048 ft 365 kts 330°
2026-05-05 18:31 50.18986 17.87299 19613 ft 363 kts 330°
2026-05-05 18:31 50.21215 17.85459 19179 ft 361 kts 330°
2026-05-05 18:31 50.23435 17.83635 18766 ft 360 kts 330°
2026-05-05 18:32 50.25644 17.81826 18349 ft 358 kts 330°
2026-05-05 18:32 50.27841 17.80029 17930 ft 355 kts 330°
2026-05-05 18:32 50.30027 17.78241 17453 ft 354 kts 330°
2026-05-05 18:32 50.32204 17.76460 16982 ft 352 kts 330°
2026-05-05 18:33 50.34368 17.74687 16529 ft 351 kts 330°
2026-05-05 18:33 50.36527 17.72917 16076 ft 349 kts 330°
2026-05-05 18:33 50.38675 17.71155 15628 ft 348 kts 330°
2026-05-05 18:33 50.40818 17.69395 15180 ft 345 kts 331°
2026-05-05 18:34 50.42929 17.67660 14577 ft 342 kts 330°
2026-05-05 18:34 50.45041 17.65922 13885 ft 343 kts 330°
2026-05-05 18:34 50.47156 17.64180 13192 ft 342 kts 330°
2026-05-05 18:34 50.49249 17.62454 12616 ft 337 kts 330°
2026-05-05 18:35 50.51315 17.60749 12087 ft 335 kts 330°
2026-05-05 18:35 50.53383 17.59040 11574 ft 337 kts 331°
2026-05-05 18:35 50.55450 17.57329 11149 ft 335 kts 331°
2026-05-05 18:35 50.57505 17.55628 10730 ft 333 kts 331°
2026-05-05 18:36 50.59552 17.53931 10324 ft 331 kts 331°
2026-05-05 18:36 50.61573 17.52256 10104 ft 323 kts 331°
2026-05-05 18:36 50.63531 17.50631 9957 ft 313 kts 331°
2026-05-05 18:36 50.65429 17.49055 9813 ft 303 kts 331°
2026-05-05 18:37 50.67256 17.47535 9764 ft 291 kts 330°
2026-05-05 18:37 50.69001 17.46084 9739 ft 277 kts 330°
2026-05-05 18:37 50.70661 17.44702 9743 ft 262 kts 330°
2026-05-05 18:37 50.72229 17.43395 9738 ft 249 kts 330°
2026-05-05 18:38 50.73710 17.42160 9755 ft 233 kts 330°
2026-05-05 18:38 50.75123 17.40980 9375 ft 229 kts 330°
2026-05-05 18:38 50.76538 17.39795 8863 ft 230 kts 330°
2026-05-05 18:38 50.77934 17.38627 8566 ft 220 kts 329°
2026-05-05 18:39 50.79223 17.37550 8369 ft 207 kts 329°
2026-05-05 18:39 50.80505 17.36476 7930 ft 205 kts 329°
2026-05-05 18:39 50.81746 17.35435 7500 ft 204 kts 329°
2026-05-05 18:39 50.82999 17.34383 7045 ft 204 kts 329°
2026-05-05 18:40 50.84246 17.33336 6655 ft 202 kts 329°
2026-05-05 18:40 50.85475 17.32303 6386 ft 200 kts 329°
2026-05-05 18:40 50.86711 17.31265 6161 ft 201 kts 329°
2026-05-05 18:40 50.87964 17.30211 6031 ft 203 kts 329°
2026-05-05 18:41 50.89212 17.29159 5811 ft 214 kts 329°
2026-05-05 18:41 50.90545 17.28035 5448 ft 215 kts 330°
2026-05-05 18:41 50.91857 17.26931 5137 ft 210 kts 330°
2026-05-05 18:41 50.93119 17.25869 4917 ft 200 kts 330°
2026-05-05 18:42 50.94301 17.24875 4812 ft 188 kts 330°
2026-05-05 18:42 50.95451 17.23905 4745 ft 188 kts 330°
2026-05-05 18:42 50.96627 17.22912 4689 ft 194 kts 330°
2026-05-05 18:42 50.97836 17.21890 4611 ft 199 kts 330°
2026-05-05 18:43 50.99057 17.20857 4519 ft 199 kts 330°
2026-05-05 18:43 51.00261 17.19733 4345 ft 198 kts 315°
2026-05-05 18:43 51.01054 17.18020 4225 ft 193 kts 300°
2026-05-05 18:43 51.01773 17.16201 3966 ft 194 kts 299°
2026-05-05 18:44 51.02422 17.14320 3715 ft 194 kts 296°
2026-05-05 18:44 51.03014 17.12423 3455 ft 190 kts 296°
2026-05-05 18:44 51.03583 17.10555 3212 ft 184 kts 296°
2026-05-05 18:44 51.04123 17.08771 3031 ft 175 kts 297°
2026-05-05 18:45 51.04653 17.07021 2753 ft 175 kts 299°
2026-05-05 18:45 51.05169 17.05319 2523 ft 168 kts 301°
2026-05-05 18:45 51.05673 17.03662 2324 ft 165 kts 301°
2026-05-05 18:45 51.06169 17.02038 2115 ft 163 kts 302°
2026-05-05 18:46 51.06677 17.00433 1938 ft 163 kts 301°
2026-05-05 18:46 51.07095 16.98765 1765 ft 161 kts 296°
2026-05-05 18:46 51.07495 16.97127 1629 ft 160 kts 301°
2026-05-05 18:46 51.07998 16.95529 1365 ft 161 kts 304°
2026-05-05 18:47 51.08544 16.94003 1120 ft 159 kts 306°
2026-05-05 18:47 51.09050 16.92461 797 ft 154 kts 301°
2026-05-05 18:47 51.09514 16.90965 601 ft 150 kts 295°
2026-05-05 18:47 51.09968 16.89525 404 ft 138 kts 301°
2026-05-05 18:48 51.10323 16.88423 405 ft 81 kts 296°
2026-05-05 18:48 51.10503 16.87828 400 ft 52 kts 296°
2026-05-05 18:48 51.10653 16.87339 402 ft 43 kts 296°
2026-05-05 18:48 51.10711 16.87242 403 ft 8 kts 12°
2026-05-05 18:49 51.10763 16.87278 400 ft 8 kts 26°
2026-05-05 18:49 51.10812 16.87316 402 ft 8 kts 26°
2026-05-05 18:49 51.10860 16.87353 402 ft 8 kts 26°
2026-05-05 18:49 51.10907 16.87389 402 ft 7 kts 26°
2026-05-05 18:50 51.10945 16.87436 402 ft 7 kts 69°
2026-05-05 18:50 51.10936 16.87511 400 ft 7 kts 113°
2026-05-05 18:50 51.10916 16.87579 401 ft 7 kts 115°
2026-05-05 18:50 51.10896 16.87646 402 ft 7 kts 116°
2026-05-05 18:51 51.10876 16.87711 400 ft 7 kts 116°
2026-05-05 18:51 51.10856 16.87775 402 ft 6 kts 116°
2026-05-05 18:51 51.10858 16.87839 399 ft 6 kts 51°
2026-05-05 18:51 51.10893 16.87877 402 ft 6 kts 27°
2026-05-05 18:52 51.10902 16.87884 400 ft 0 kts 27°